User: anonymous   Login
Location: Unspecified
(0.0000°N, 0.0000°E)
Time: 16:53:19
(UTC+00:00)
Language:

N. Korean satellite - Orbit

View from above orbital plane
View from above orbital plane
View from above satellite
View from above satellite

Ground track
Ground track

The orbit data is extracted from the following two-line orbital elements,

1 39026U 12072A   19292.19627962  .00001442  00000-0  54225-4 0  9990
2 39026  97.2155 291.4192 0038688  28.2281 332.1044 15.28075925380300
Epoch (UTC): 19 October 2019 04:42:38
Eccentricity: 0.0038688
inclination: 97.2155°
perigee height: 455 km
apogee height: 508 km
right ascension of ascending node: 291.4192°
argument of perigee: 28.2281°
revolutions per day: 15.28075925
mean anomaly at epoch: 332.1044°
orbit number at epoch: 38030

The dashed part of the orbit path shows where the satellite is in the earth's shadow,  

DLR